Wind_Speed
4 5 6 7 6 5 5 8 11 10 10 10 10 8 8 8 8 7 7 7 7 7 7 7 7 6 6 6 6 6 6 6 7 7 8 8 8 8 8 8 8 9 9 8 8 7 7 6 6
4 4 4 5 5 5 5 8 11 12 14 14 13 12 10 9 8 7 7 6 7 7 7 7 6 6 6 6 6 6 6 6 7 7 7 7 7 7 7 8 8 8 8 8 8 8 7 7 6
6 4 2 3 2 4 5 9 10 13 16 17 18 16 13 10 9 8 8 8 7 7 6 6 5 5 5 6 6 6 6 7 7 7 8 8 8 8 8 8 8 9 9 9 9 8 8 8 7
8 6 3 1 2 2 5 7 7 13 16 18 19 18 16 13 11 10 9 8 7 6 6 6 6 6 6 6 7 7 8 7 8 8 8 9 9 9 9 9 9 10 10 10 10 10 10 10 9
10 8 5 4 5 4 4 7 10 13 17 19 20 19 17 15 14 12 10 9 7 6 6 7 7 7 8 8 8 9 9 9 9 9 10 10 10 10 10 10 11 11 11 12 12 12 12 11 11
13 10 6 4 5 4 2 5 10 15 19 20 22 20 18 16 13 12 11 9 7 6 6 7 9 9 9 9 10 10 10 11 11 11 11 12 12 12 12 12 12 13 13 13 14 14 14 14 13
16 12 7 7 6 4 3 5 10 15 18 19 21 21 19 16 14 13 12 10 8 7 8 9 10 10 11 11 11 11 12 12 12 13 13 14 15 15 15 15 14 15 15 15 15 16 16 16 16
19 15 10 10 11 9 8 8 12 15 17 20 22 23 21 19 16 13 12 12 10 9 9 10 10 11 12 12 12 12 13 13 13 14 15 16 16 17 17 18 18 18 18 17 18 18 18 18 18
22 18 13 14 15 13 12 12 15 18 20 21 23 24 22 20 18 15 13 13 12 11 11 11 11 11 12 13 13 14 14 15 15 16 17 18 18 18 19 20 20 19 19 19 20 20 20 20 20
24 19 17 18 19 18 16 16 19 21 23 24 25 25 24 23 21 19 16 14 14 14 14 13 13 13 14 14 15 15 16 17 17 18 19 20 20 20 20 21 21 21 21 20 21 21 22 22 22
26 22 20 20 22 22 19 19 22 25 26 28 28 28 28 26 23 23 20 17 17 16 16 16 15 16 16 16 17 17 18 19 20 20 22 22 22 23 23 23 23 23 23 23 23 24 24 24 23
26 23 23 22 22 23 22 22 23 26 28 29 30 31 31 27 26 24 22 20 19 17 17 18 17 17 18 19 19 20 20 21 22 23 24 25 25 26 24 23 24 25 25 26 26 26 27 26 26
24 22 22 21 21 23 23 23 24 26 27 28 30 30 29 28 27 25 23 23 20 19 19 19 20 20 21 21 21 23 23 23 24 26 26 27 28 27 27 25 26 26 26 27 28 28 28 28 28
18 17 17 18 18 20 22 24 25 26 27 28 29 30 28 27 27 26 24 24 21 20 19 20 20 21 23 23 23 24 25 25 27 28 28 28 28 28 28 28 28 28 28 28 28 29 29 29 28
13 13 12 12 14 17 20 23 25 25 26 27 28 28 28 27 27 25 24 25 22 21 22 22 23 23 23 25 26 27 28 29 31 31 31 31 30 30 30 30 29 29 29 28 28 29 28 27 26
9 10 10 9 12 15 18 20 22 24 24 24 24 25 26 26 25 24 24 23 22 23 23 24 24 25 25 26 27 29 30 32 32 33 33 33 32 32 32 31 31 31 30 30 29 30 28 28 27
5 6 7 10 12 13 17 19 20 20 20 21 21 22 23 23 22 22 22 22 22 23 23 23 24 25 25 27 28 29 31 32 33 34 34 35 34 34 33 32 32 32 31 31 31 31 28 27 27
5 6 7 9 12 14 16 19 19 20 21 20 20 19 20 20 21 21 21 21 22 23 23 24 25 26 27 29 30 31 32 34 35 35 36 36 36 36 35 34 33 33 32 31 31 30 28 28 27
7 8 8 10 13 14 17 19 20 20 18 18 18 18 17 17 18 19 20 21 22 22 23 25 26 28 29 30 31 32 34 35 35 36 36 36 37 36 35 35 34 33 32 32 31 29 28 28 27
8 7 7 9 12 14 17 19 20 18 16 16 17 16 14 14 15 16 18 20 21 23 24 25 26 28 29 31 32 34 35 35 35 35 36 36 37 36 36 36 35 35 34 33 32 30 29 28 29
7 8 9 10 12 13 16 18 16 15 16 15 14 11 11 11 13 15 17 19 20 22 24 25 26 28 30 31 33 34 35 35 36 36 37 37 38 38 38 38 37 36 36 35 33 32 30 29 29
8 9 11 11 13 14 17 18 16 15 15 13 10 9 9 10 12 14 16 18 19 21 23 25 27 29 31 32 34 35 36 37 38 38 38 38 39 39 39 39 39 38 37 37 35 34 33 31 30
10 10 11 11 12 14 16 16 14 13 10 7 6 6 9 10 12 13 15 17 19 21 23 25 27 29 31 33 35 36 38 39 39 40 40 40 40 39 39 39 39 39 38 38 37 36 35 34 32
9 10 10 11 13 14 14 11 8 8 5 2 2 5 7 9 11 14 16 18 20 21 24 26 27 29 31 33 35 37 38 39 39 40 40 40 40 40 39 39 39 39 38 38 38 37 37 36 35
8 9 9 10 12 13 13 10 7 8 8 6 5 6 8 11 13 15 17 19 21 23 25 28 29 31 33 35 37 38 38 39 39 40 40 41 41 40 40 39 39 38 38 38 38 38 37 37 37
8 9 9 10 11 11 12 12 11 11 11 8 8 9 11 14 16 18 20 22 25 27 29 30 32 34 35 37 38 38 38 39 39 40 40 40 41 40 40 39 39 39 39 39 38 38 38 38 38
8 9 10 10 10 10 9 10 12 12 11 11 11 13 15 18 20 22 24 26 28 30 32 34 36 37 38 39 39 39 39 40 40 40 40 40 40 40 40 40 40 40 40 40 40 40 39 39 39
10 11 10 9 10 10 10 11 13 13 14 13 15 17 20 22 24 26 27 30 32 34 36 39 40 41 41 41 41 41 40 40 40 40 40 41 41 41 41 41 41 41 40 40 40 40 40 41 41
8 8 8 9 10 12 13 14 15 16 16 17 19 22 24 25 27 28 30 32 35 37 40 42 42 43 42 42 42 42 41 41 41 41 42 42 42 42 43 43 42 42 42 42 41 41 42 42 42
8 8 9 11 12 14 16 17 17 18 19 21 23 25 26 27 28 30 32 35 37 40 41 42 43 42 42 42 42 42 42 42 42 42 43 43 43 43 43 44 43 43 44 44 44 45 45 45 45
Wind_Direction
41 56 61 55 51 41 37 29 18 12 2 4 356 344 340 345 345 334 331 340 338 341 338 335 331 331 332 334 335 341 347 350 352 353 353 351 350 350 348 347 345 343 343 344 346 347 349 352 355
8 27 51 54 38 27 36 32 16 0 345 345 341 331 335 337 329 328 330 333 340 343 336 332 331 330 329 328 329 333 336 337 337 338 340 340 338 338 336 335 334 333 332 331 331 330 331 331 334
337 344 34 56 62 12 20 27 11 344 333 333 329 326 325 323 319 321 322 327 334 334 329 326 324 322 320 320 320 323 325 326 327 326 326 326 326 325 323 322 322 321 319 318 318 316 315 314 313
322 322 324 265 266 338 9 7 2 329 319 319 318 319 318 316 316 317 316 318 321 317 314 312 310 308 310 312 311 312 312 313 314 314 313 313 315 316 315 313 312 311 308 307 307 305 304 302 299
314 312 304 287 278 298 344 350 331 312 303 305 310 313 315 314 315 314 312 307 309 305 300 300 300 298 300 302 305 306 306 306 305 304 304 305 306 305 304 303 302 302 302 300 297 295 295 294 289
307 306 294 273 278 298 356 338 310 298 294 298 304 307 310 308 308 308 306 301 300 297 295 293 292 292 294 298 301 301 301 302 302 301 301 299 300 298 296 294 293 292 293 293 290 287 285 285 282
297 297 279 239 232 232 225 265 280 288 289 293 297 303 306 306 300 296 297 296 292 288 288 290 289 290 293 298 301 303 302 299 299 301 300 298 296 295 292 290 290 287 286 285 285 283 281 279 278
288 287 270 239 232 232 231 247 266 275 280 287 293 300 302 306 302 292 290 287 282 279 282 286 290 293 296 298 299 302 302 300 298 298 299 298 297 296 294 290 290 288 285 283 280 279 277 275 274
282 278 263 240 237 238 236 242 257 268 274 280 287 294 299 303 301 292 289 283 277 276 278 283 288 292 295 296 298 302 304 304 304 304 303 300 301 300 296 293 291 291 288 284 278 275 274 274 271
276 270 255 245 242 238 239 244 255 263 268 274 280 286 293 293 292 288 285 283 282 284 279 280 284 288 290 292 295 300 304 306 306 304 304 303 303 303 300 297 293 290 289 286 280 275 273 271 269
271 263 252 247 242 240 240 244 252 259 262 269 276 283 288 287 289 286 283 280 280 282 287 282 283 286 288 291 294 300 302 303 304 303 303 302 303 302 301 300 295 292 289 286 283 279 273 269 268
266 260 251 244 241 240 240 243 249 258 266 272 276 280 285 284 285 281 284 285 282 279 278 279 280 284 286 288 292 296 298 299 300 301 302 301 301 300 300 300 296 293 290 288 284 283 277 269 266
264 259 252 247 244 243 243 245 251 259 267 273 277 282 284 284 285 284 283 283 283 282 279 277 280 281 283 284 288 290 291 294 296 296 298 299 298 296 297 296 295 293 292 289 284 283 279 271 265
262 256 250 247 244 243 244 248 253 260 266 273 278 281 285 287 286 286 283 284 282 281 281 284 286 286 285 285 285 287 290 291 294 296 297 299 298 296 294 294 290 291 291 289 286 285 283 276 267
255 247 239 243 240 239 242 246 251 260 266 271 274 280 283 285 286 286 288 288 281 286 289 288 290 287 286 289 292 293 296 296 298 298 299 298 297 295 294 293 291 291 290 290 289 288 282 275 269
242 236 225 228 234 238 244 248 253 260 264 271 276 280 281 281 283 287 290 290 289 292 293 292 292 294 293 292 294 296 297 297 298 298 298 297 297 296 294 293 291 291 291 290 289 287 283 276 270
240 238 228 229 238 246 248 248 251 258 266 272 276 278 280 280 283 286 288 289 292 293 295 294 294 295 295 295 295 295 296 296 296 296 297 296 296 296 294 292 291 291 290 289 288 284 281 275 271
277 271 254 253 256 256 255 254 256 264 264 267 271 275 279 280 283 285 287 289 292 294 295 294 294 294 294 295 294 294 294 294 294 294 295 295 295 294 291 289 288 288 288 288 287 282 278 274 268
295 289 274 274 267 259 260 264 264 268 264 267 268 270 273 276 280 285 288 291 293 293 293 294 295 294 294 294 294 294 293 293 293 293 293 293 293 291 289 288 287 286 285 286 285 281 277 272 267
307 311 304 288 278 270 274 278 279 280 272 268 273 267 268 273 280 287 291 293 294 294 295 295 296 297 297 295 295 295 295 294 294 293 292 292 291 290 288 287 286 285 283 282 281 279 277 273 267
319 319 315 305 303 298 293 295 294 290 291 278 272 266 268 272 283 289 293 295 297 298 299 298 298 298 298 297 297 297 296 296 295 293 291 290 289 288 287 286 284 282 281 279 278 276 274 272 265
327 324 327 322 317 314 309 308 307 299 299 280 269 272 278 281 288 294 298 300 302 302 301 300 300 299 299 298 298 298 297 296 295 294 292 290 289 287 286 284 282 280 278 276 275 273 270 268 264
331 332 337 334 331 324 315 314 310 307 303 278 269 281 291 295 299 303 305 307 307 305 303 302 301 300 298 297 297 296 296 295 294 293 292 290 289 287 285 283 281 278 276 274 272 270 268 264 262
326 331 342 343 342 342 339 332 329 324 334 355 311 302 308 309 310 312 312 311 309 307 306 305 303 301 300 299 298 297 296 295 294 294 293 291 289 288 286 283 280 278 276 273 270 268 265 262 258
331 334 340 342 350 357 3 7 20 25 25 23 0 332 325 324 322 319 318 316 315 313 313 311 309 306 304 303 301 300 298 296 295 294 293 291 290 288 286 284 280 278 275 273 270 267 263 260 256
331 335 340 339 345 355 2 12 20 22 18 14 353 339 333 330 329 328 326 324 322 321 319 317 315 312 309 307 305 303 301 299 297 295 294 292 290 289 286 283 281 277 275 272 269 266 263 260 256
324 328 340 342 341 340 347 360 2 5 7 0 349 340 337 337 337 335 331 328 326 323 322 320 318 316 314 311 308 306 304 302 300 298 295 293 292 289 287 284 281 278 275 272 269 266 262 259 256
328 333 338 341 336 340 346 349 352 357 355 353 346 343 342 341 339 335 331 329 327 326 324 323 321 319 317 314 312 309 306 304 302 300 298 295 293 290 288 285 282 279 276 272 269 266 262 259 256
327 332 339 342 338 337 339 345 351 353 352 349 347 345 343 340 337 334 331 329 328 326 325 324 322 319 317 315 312 309 307 305 303 301 299 297 295 292 289 286 283 280 276 272 268 265 263 259 256
340 346 349 350 342 339 339 347 349 350 350 349 346 342 339 337 334 332 331 329 328 326 324 322 320 319 317 315 313 311 308 306 304 302 300 298 296 293 290 286 283 281 277 274 270 266 262 259 256
Height
5935 5934 5934 5935 5935 5934 5932 5931 5929 5929 5928 5929 5929 5929 5928 5928 5927 5928 5925 5923 5922 5921 5921 5920 5920 5920 5919 5919 5918 5917 5917 5916 5915 5915 5914 5913 5912 5912 5911 5910 5909 5908 5907 5906 5905 5904 5903 5902 5902
5935 5934 5934 5934 5934 5933 5932 5930 5929 5928 5927 5927 5927 5928 5928 5927 5925 5924 5923 5922 5921 5920 5920 5920 5919 5919 5918 5918 5917 5917 5916 5915 5914 5914 5913 5912 5911 5911 5910 5909 5908 5907 5906 5905 5904 5903 5902 5902 5901
5934 5933 5934 5933 5933 5932 5931 5929 5929 5928 5926 5926 5926 5926 5926 5926 5924 5923 5922 5921 5920 5920 5919 5919 5918 5918 5917 5917 5916 5916 5915 5914 5913 5913 5912 5911 5910 5910 5909 5908 5907 5906 5905 5904 5903 5902 5901 5901 5900
5933 5933 5933 5933 5931 5930 5928 5927 5926 5927 5925 5925 5925 5924 5924 5924 5922 5921 5920 5919 5919 5918 5918 5918 5917 5917 5916 5916 5915 5914 5914 5913 5912 5911 5910 5910 5909 5908 5907 5906 5906 5905 5904 5903 5902 5901 5900 5899 5899
5932 5932 5932 5931 5929 5927 5925 5924 5925 5925 5925 5923 5923 5923 5922 5923 5921 5919 5918 5918 5917 5917 5917 5916 5916 5915 5915 5914 5913 5912 5912 5911 5910 5909 5908 5907 5907 5906 5905 5904 5903 5903 5902 5901 5900 5899 5898 5897 5897
5931 5931 5930 5929 5927 5924 5922 5922 5923 5922 5921 5921 5920 5920 5920 5920 5919 5917 5916 5915 5915 5915 5915 5914 5914 5913 5913 5912 5911 5910 5909 5908 5907 5906 5905 5905 5904 5903 5902 5901 5900 5899 5899 5898 5897 5896 5895 5895 5894
5929 5928 5928 5927 5924 5921 5920 5918 5918 5918 5917 5918 5918 5917 5917 5917 5916 5915 5914 5913 5912 5913 5913 5912 5911 5911 5910 5909 5908 5907 5906 5905 5904 5903 5902 5901 5900 5899 5898 5897 5897 5896 5895 5894 5893 5893 5892 5891 5891
5925 5926 5925 5923 5920 5918 5917 5915 5915 5915 5914 5915 5915 5914 5914 5914 5913 5912 5912 5910 5909 5909 5910 5909 5909 5908 5907 5906 5905 5904 5903 5902 5901 5899 5898 5897 5896 5895 5894 5893 5892 5891 5890 5890 5889 5889 5888 5887 5887
5920 5922 5921 5919 5917 5916 5914 5911 5911 5911 5911 5911 5911 5911 5911 5910 5910 5909 5910 5908 5907 5907 5906 5906 5905 5904 5903 5902 5901 5900 5899 5898 5897 5895 5894 5892 5891 5890 5889 5888 5887 5886 5886 5885 5884 5883 5883 5882 5882
5915 5917 5917 5915 5913 5912 5911 5909 5908 5907 5907 5907 5907 5907 5907 5907 5906 5906 5906 5905 5904 5903 5903 5902 5902 5901 5900 5899 5897 5896 5895 5894 5893 5891 5889 5888 5887 5885 5884 5883 5881 5881 5880 5879 5878 5877 5877 5877 5877
5908 5910 5910 5909 5908 5907 5907 5906 5904 5903 5903 5903 5903 5903 5902 5902 5902 5902 5901 5901 5899 5899 5899 5898 5897 5896 5895 5894 5893 5892 5891 5890 5888 5886 5885 5883 5881 5880 5878 5877 5876 5875 5873 5872 5872 5871 5870 5870 5870
5901 5902 5903 5903 5902 5902 5902 5901 5900 5899 5899 5899 5899 5898 5898 5897 5896 5896 5895 5895 5895 5894 5894 5893 5892 5891 5890 5889 5888 5887 5886 5885 5883 5881 5879 5877 5875 5873 5871 5871 5869 5868 5867 5865 5864 5864 5863 5863 5863
5895 5895 5895 5895 5895 5896 5896 5896 5896 5894 5895 5894 5894 5893 5893 5892 5891 5890 5890 5889 5888 5889 5889 5888 5887 5886 5885 5883 5882 5882 5881 5879 5878 5875 5874 5872 5870 5867 5866 5865 5863 5862 5861 5859 5858 5857 5856 5855 5855
5889 5889 5890 5890 5891 5891 5892 5892 5891 5891 5891 5890 5889 5889 5888 5887 5886 5885 5884 5884 5883 5883 5884 5883 5881 5879 5878 5876 5875 5875 5873 5873 5872 5869 5867 5865 5863 5862 5860 5858 5856 5855 5853 5852 5851 5849 5848 5848 5848
5884 5885 5886 5886 5886 5886 5887 5887 5886 5887 5887 5886 5886 5885 5884 5883 5881 5880 5880 5878 5878 5878 5878 5876 5874 5872 5871 5870 5869 5868 5866 5865 5863 5862 5860 5858 5856 5854 5853 5851 5849 5848 5846 5844 5843 5842 5841 5840 5841
5881 5882 5883 5883 5882 5882 5883 5883 5883 5883 5883 5882 5882 5881 5880 5879 5877 5876 5876 5875 5874 5874 5872 5870 5868 5866 5864 5864 5863 5862 5860 5858 5856 5854 5852 5850 5848 5846 5845 5843 5842 5840 5838 5837 5836 5834 5833 5833 5833
5879 5879 5879 5879 5878 5878 5878 5877 5877 5877 5878 5878 5877 5876 5875 5873 5873 5873 5871 5871 5870 5868 5867 5866 5864 5861 5860 5858 5857 5856 5854 5852 5850 5847 5845 5843 5841 5839 5837 5836 5834 5832 5831 5829 5828 5827 5826 5826 5826
5877 5876 5876 5876 5875 5874 5874 5873 5873 5873 5873 5873 5872 5871 5870 5870 5869 5869 5868 5867 5865 5863 5862 5861 5859 5858 5856 5854 5852 5850 5848 5845 5843 5840 5837 5835 5833 5831 5829 5828 5826 5825 5823 5821 5820 5819 5818 5818 5818
5875 5874 5873 5873 5871 5871 5871 5870 5869 5868 5867 5868 5868 5868 5867 5866 5866 5865 5863 5862 5861 5859 5858 5857 5855 5853 5851 5848 5846 5843 5841 5838 5836 5833 5830 5827 5825 5823 5821 5820 5818 5817 5815 5814 5812 5811 5811 5810 5810
5873 5872 5871 5871 5870 5869 5868 5867 5865 5864 5864 5865 5864 5864 5864 5863 5863 5861 5860 5859 5857 5855 5853 5851 5849 5846 5844 5841 5839 5836 5833 5830 5827 5825 5822 5819 5817 5814 5812 5811 5809 5808 5807 5805 5804 5803 5803 5803 5803
5872 5872 5871 5869 5867 5866 5866 5864 5861 5861 5861 5861 5861 5860 5861 5861 5860 5858 5857 5855 5853 5851 5848 5846 5843 5840 5837 5834 5831 5828 5824 5821 5818 5816 5813 5810 5808 5805 5803 5801 5800 5799 5798 5797 5796 5796 5796 5796 5795
5871 5870 5869 5867 5866 5864 5863 5861 5859 5858 5857 5857 5858 5859 5859 5858 5857 5856 5854 5852 5849 5847 5844 5841 5837 5834 5830 5827 5823 5820 5816 5812 5809 5806 5803 5800 5798 5795 5793 5791 5790 5789 5788 5787 5787 5787 5787 5787 5788
5869 5868 5866 5865 5864 5863 5861 5859 5858 5856 5855 5854 5854 5855 5855 5855 5854 5852 5850 5848 5845 5842 5839 5835 5832 5828 5824 5820 5816 5812 5808 5803 5800 5796 5793 5790 5787 5785 5782 5780 5778 5777 5777 5776 5776 5776 5777 5778 5779
5867 5866 5865 5864 5863 5861 5858 5857 5856 5854 5853 5853 5853 5853 5853 5852 5850 5849 5846 5844 5841 5838 5834 5830 5826 5821 5817 5812 5808 5803 5799 5794 5790 5786 5782 5779 5775 5773 5771 5769 5767 5766 5765 5765 5765 5765 5766 5767 5769
5866 5866 5865 5864 5862 5860 5857 5855 5855 5853 5853 5852 5852 5851 5850 5848 5847 5844 5842 5838 5835 5831 5827 5823 5818 5813 5809 5804 5799 5793 5789 5784 5779 5775 5771 5767 5764 5761 5759 5757 5755 5754 5753 5753 5753 5754 5755 5756 5758
5866 5865 5864 5862 5860 5859 5857 5855 5854 5852 5852 5851 5850 5848 5847 5845 5842 5839 5835 5832 5828 5824 5819 5815 5810 5805 5799 5794 5789 5783 5778 5773 5768 5764 5760 5756 5752 5749 5747 5745 5743 5742 5741 5741 5741 5742 5743 5744 5746
5866 5864 5862 5860 5858 5857 5855 5854 5853 5851 5851 5849 5847 5845 5843 5840 5836 5833 5829 5825 5821 5817 5812 5806 5801 5795 5790 5784 5778 5773 5767 5762 5757 5753 5748 5744 5741 5738 5735 5732 5731 5729 5728 5728 5728 5729 5730 5731 5733
5864 5863 5861 5859 5857 5855 5854 5852 5852 5850 5848 5846 5843 5841 5837 5834 5831 5827 5823 5819 5814 5809 5803 5798 5791 5785 5779 5773 5768 5762 5757 5751 5746 5742 5737 5733 5729 5725 5722 5720 5718 5716 5715 5715 5715 5715 5717 5718 5720
5863 5862 5859 5857 5855 5853 5851 5853 5849 5847 5844 5841 5839 5836 5832 5829 5826 5822 5818 5813 5808 5802 5796 5789 5783 5776 5770 5764 5758 5752 5746 5741 5736 5731 5726 5721 5717 5713 5709 5706 5704 5702 5701 5701 5701 5701 5702 5704 5707
5860 5859 5857 5856 5853 5851 5849 5851 5846 5843 5840 5837 5834 5831 5828 5825 5822 5817 5813 5807 5802 5796 5789 5782 5775 5768 5762 5755 5749 5742 5736 5731 5725 5719 5714 5709 5704 5699 5695 5692 5689 5687 5686 5685 5685 5686 5687 5689 5692